Theta_e
319 319 319 319 319 320 320 319 318 316 315 316 318 318 320 322 323 323 327 331 332 333 333 330 327 325 323 322 322 317 311 312 313 311 310 307 305 304 304 303 303 304 305 307 307 307 307 307 307 307 307 307
319 319 319 318 318 318 318 318 317 316 315 314 315 316 317 319 321 323 325 329 331 331 333 331 329 326 324 323 321 316 310 310 311 310 308 305 304 304 303 303 303 305 306 307 307 307 307 307 307 307 307 307
318 319 319 318 318 318 317 317 316 315 315 314 314 314 315 315 318 322 323 327 330 330 331 330 327 324 323 321 317 313 309 308 309 307 306 304 304 304 303 303 304 306 307 307 307 306 307 307 307 306 306 307
317 318 319 319 319 318 317 317 316 315 314 314 314 313 314 314 315 320 322 325 329 330 329 326 322 320 320 318 315 311 308 307 307 306 305 304 304 304 304 303 305 306 307 306 306 306 306 306 306 306 306 306
316 317 318 319 319 319 318 318 317 315 315 314 314 314 314 314 314 318 321 325 327 328 327 324 319 316 316 316 313 310 308 306 306 306 305 304 304 304 304 304 305 307 307 306 306 306 306 306 306 306 307 307
316 317 318 318 319 319 319 319 318 317 316 315 315 314 314 314 314 316 320 324 326 327 326 323 319 315 315 314 312 310 308 306 305 306 305 305 305 304 304 304 306 307 306 306 306 306 306 307 307 307 307 307
316 316 317 317 318 319 319 319 319 319 317 316 316 315 314 314 314 316 320 323 324 326 325 323 320 316 314 313 312 311 308 305 305 306 305 305 305 304 304 304 306 307 307 306 306 306 307 308 308 308 308 308
315 316 316 317 317 318 319 319 320 320 318 317 317 316 315 314 314 316 320 324 326 327 326 325 321 316 313 312 312 311 308 305 305 305 305 305 304 304 304 304 306 307 307 306 306 307 308 308 308 308 308 308
315 315 315 316 316 317 318 318 319 319 318 318 317 317 315 314 313 315 320 324 327 329 327 325 320 315 313 311 312 311 308 306 304 305 305 304 304 304 304 304 306 306 307 306 306 307 308 308 309 308 308 309
316 315 316 316 316 317 318 318 318 318 318 318 318 317 316 314 313 314 317 322 326 328 326 322 318 313 312 311 311 310 308 306 305 305 305 304 303 303 304 304 305 306 306 306 306 307 308 309 309 309 309 309
316 316 316 316 317 318 318 318 318 318 318 318 318 318 318 316 314 314 315 319 322 323 322 320 316 313 312 311 311 311 309 307 305 305 305 304 303 303 303 303 304 306 306 306 306 307 308 309 308 308 308 308
316 316 317 317 317 317 318 319 319 319 318 318 318 317 318 318 315 315 317 319 320 320 321 319 316 314 313 311 312 312 310 309 307 305 305 304 303 303 303 303 304 305 306 306 306 307 308 308 308 308 308 308
316 316 316 317 317 317 318 319 320 321 321 320 319 318 318 318 317 315 317 320 321 322 321 319 318 316 314 312 312 312 311 310 308 306 305 304 303 303 303 303 303 304 306 306 305 306 307 308 308 308 307 307
317 317 317 317 318 318 318 319 320 322 323 322 322 321 320 319 319 317 318 321 322 322 322 320 319 318 316 314 312 312 312 311 309 307 305 304 303 303 303 303 303 303 304 305 305 305 306 307 307 307 307 307
318 318 319 319 319 320 320 320 322 322 323 324 324 323 323 322 321 320 320 322 323 323 323 322 321 320 318 316 314 313 313 313 311 308 305 304 303 303 303 303 303 303 303 304 305 305 305 306 306 307 307 307
320 319 320 321 321 322 322 323 324 324 324 325 325 325 325 324 323 322 321 322 322 322 323 323 322 321 319 318 317 316 315 315 314 311 307 304 303 302 302 302 302 302 303 303 304 304 304 305 306 306 306 306
320 320 321 322 323 323 324 325 325 326 326 326 326 327 326 326 325 324 323 323 322 322 323 323 322 321 320 320 320 319 318 318 317 314 310 306 303 303 302 302 302 302 302 302 303 304 304 304 304 305 306 306
320 322 322 323 324 324 325 325 326 326 326 327 327 327 327 327 326 325 325 325 325 324 324 323 322 321 321 321 321 320 320 320 319 316 313 309 304 302 302 302 302 302 302 302 303 303 303 304 304 304 304 305
319 322 323 324 324 324 325 325 325 326 326 327 327 327 327 327 326 326 326 325 325 325 325 324 323 323 322 322 322 322 321 321 320 318 316 312 305 302 302 302 302 302 301 301 302 302 303 303 303 303 303 304
317 320 322 323 324 324 324 325 325 325 325 326 326 326 327 326 326 326 326 326 325 325 325 324 324 324 324 324 323 323 322 321 320 319 318 314 309 305 303 302 302 301 301 301 301 301 302 302 303 303 303 303
316 319 321 322 323 323 323 324 324 324 325 325 325 325 325 326 326 326 326 326 325 325 325 325 325 325 325 324 324 324 323 322 320 319 318 317 314 311 308 305 303 302 301 301 301 301 301 301 302 302 303 303
315 318 320 322 322 322 322 322 323 323 324 324 325 325 326 326 326 326 326 326 325 325 324 325 325 325 325 325 324 323 323 322 321 320 319 318 317 316 313 309 306 304 303 301 300 300 300 300 301 302 302 302
313 316 318 320 321 321 321 321 322 322 323 324 324 325 325 325 326 325 326 325 325 325 324 324 324 324 324 324 323 323 323 322 321 321 320 320 319 318 316 314 310 307 305 303 300 299 299 299 300 301 301 302
310 312 314 317 319 320 321 320 321 321 321 322 323 323 323 324 325 325 325 325 325 325 324 324 324 323 323 322 322 322 322 321 320 320 320 320 320 319 317 315 313 309 306 304 301 299 298 298 299 299 300 301
309 309 310 312 315 317 318 319 319 319 320 320 320 321 321 321 322 322 323 323 323 323 323 323 323 323 322 322 321 321 320 319 319 319 319 319 319 318 317 315 314 312 308 305 302 300 298 298 298 298 299 300
308 308 309 310 311 312 313 314 315 315 316 317 317 318 319 319 319 319 320 320 320 320 320 320 321 321 320 320 320 319 319 318 318 318 318 318 318 318 317 315 314 313 309 306 303 301 299 298 298 298 298 299
306 307 307 307 308 308 308 309 309 310 310 310 311 312 313 314 315 316 316 317 317 318 318 318 318 318 318 317 317 318 318 317 317 317 317 317 317 317 316 315 314 313 311 308 305 301 299 298 297 297 298 299
306 306 306 306 306 306 307 307 306 307 306 307 306 307 307 307 308 308 310 311 313 314 315 316 316 316 316 315 315 315 315 315 315 315 315 315 315 315 314 314 313 312 311 309 306 302 299 297 297 297 298 298
306 306 306 306 306 306 306 305 305 305 305 305 305 305 305 305 305 304 305 305 306 307 309 310 312 313 313 313 313 314 313 313 313 312 312 313 312 312 312 312 312 311 310 309 308 304 300 298 297 297 298 298
306 306 306 306 305 305 305 305 305 304 304 303 304 304 304 304 304 304 304 304 304 304 304 305 306 307 309 310 311 312 312 312 312 311 311 311 310 310 310 309 309 309 308 308 308 305 302 300 298 297 297 297
305 305 305 305 305 305 305 305 305 304 304 304 303 303 304 304 304 304 304 304 304 304 304 304 304 304 305 306 307 309 309 310 310 310 310 310 309 308 308 307 307 307 307 306 306 305 303 301 299 298 297 297
Wind_Speed
15 16 17 17 18 18 18 18 17 17 17 17 17 16 14 13 13 13 15 16 17 17 15 14 13 11 10 9 10 11 11 9 8 10 8 6 6 8 8 8 8 7 6 5 4 4 4 4 4 3 3 3
16 16 17 17 17 18 18 19 18 18 17 17 17 16 15 15 14 15 17 18 18 18 17 16 14 13 11 10 11 12 12 8 8 9 6 6 8 9 9 9 9 8 7 6 5 5 5 5 5 5 4 4
17 16 17 17 17 18 19 19 19 18 18 18 17 17 16 17 16 16 19 20 20 20 19 18 16 13 11 11 11 13 12 8 8 8 6 7 9 10 10 10 9 9 8 7 6 6 6 6 6 6 5 5
17 17 18 18 18 19 19 20 20 19 18 18 18 17 17 17 17 18 19 20 21 21 21 18 15 13 12 11 12 13 11 8 8 8 7 8 10 11 11 11 10 9 8 7 7 7 6 6 6 6 6 6
18 18 19 19 20 20 20 21 21 20 19 19 19 18 18 18 18 19 20 21 22 22 22 19 15 13 12 11 12 13 12 9 9 9 8 10 11 12 12 12 11 10 9 8 7 7 7 7 7 7 7 7
18 19 20 20 21 21 21 22 22 22 21 21 20 20 20 19 20 20 20 21 22 23 22 20 17 14 12 11 11 13 13 10 10 9 9 11 12 13 13 12 12 11 10 9 8 8 7 7 7 7 8 8
19 20 20 21 22 22 22 23 23 24 23 22 21 21 21 20 21 21 21 22 23 23 23 21 19 16 14 12 11 13 14 12 11 10 11 12 12 14 14 13 13 12 10 9 8 8 8 8 8 8 8 8
20 20 21 22 22 22 23 23 24 24 24 23 23 22 22 21 21 22 22 23 23 24 24 23 21 19 15 12 11 13 14 13 12 11 12 12 13 15 14 14 13 12 11 10 9 9 9 9 9 8 9 9
19 20 21 22 22 22 23 24 24 25 25 25 24 23 23 22 22 23 23 23 24 25 25 25 23 21 17 14 13 13 15 15 13 13 13 12 14 16 15 14 14 13 13 12 11 10 10 10 9 9 9 9
16 19 20 21 21 22 22 23 24 25 26 26 26 25 24 24 24 24 24 24 25 26 26 25 24 21 19 16 15 14 15 16 15 14 13 12 14 16 16 16 15 15 14 13 12 12 11 11 11 10 10 10
13 16 18 20 20 21 21 22 23 24 25 26 26 26 26 25 25 25 25 26 26 26 26 25 24 22 21 19 17 16 16 17 17 16 14 13 15 17 17 17 17 17 16 14 14 14 13 13 12 11 10 10
12 13 14 17 19 20 21 21 22 22 23 24 25 25 26 26 27 26 26 26 27 27 27 26 25 24 23 22 20 18 16 18 18 17 16 14 16 19 19 19 18 18 17 16 16 15 14 14 13 12 11 10
12 12 12 14 16 17 19 20 20 20 21 22 22 22 23 25 27 28 27 27 27 28 28 27 27 26 25 24 23 21 18 18 19 19 18 16 17 20 21 21 20 19 19 18 18 17 15 15 15 14 13 11
12 12 13 13 13 14 17 18 19 20 20 20 20 20 20 21 24 27 27 27 28 28 28 28 28 28 27 26 25 24 21 19 20 20 19 18 18 20 22 21 21 20 20 20 19 18 17 16 16 16 14 13
12 13 13 13 13 14 15 16 17 18 19 19 19 19 18 18 20 23 26 28 28 29 29 29 29 29 29 28 27 26 24 21 20 21 20 19 18 21 22 23 23 22 21 21 21 20 19 18 18 17 16 14
10 11 12 13 14 14 15 15 17 18 18 19 18 18 18 18 18 20 23 26 28 29 30 30 30 30 30 30 28 27 26 23 21 22 21 20 20 21 23 24 24 23 23 22 22 22 21 20 19 19 18 16
8 9 10 12 13 14 15 16 17 18 18 18 18 19 19 19 18 19 20 21 23 25 28 29 28 29 29 29 28 27 26 25 23 22 22 22 21 22 25 26 26 25 25 24 24 23 23 22 21 20 19 18
5 7 9 10 12 13 14 15 16 17 17 17 17 18 18 19 18 18 19 19 20 21 23 24 25 25 26 26 26 26 26 26 24 24 24 24 23 23 25 26 27 27 27 26 26 25 24 24 23 22 21 20
6 7 8 9 10 11 12 13 14 15 16 16 17 17 18 18 18 17 18 18 19 19 20 21 22 22 22 23 24 25 26 27 26 26 25 24 24 24 25 26 28 28 28 28 28 27 26 25 25 24 23 23
7 7 8 9 9 10 11 12 12 13 14 15 16 17 17 17 18 18 18 19 19 19 20 20 20 20 20 21 23 24 26 27 27 27 25 24 23 23 24 26 28 29 30 29 29 29 28 27 26 26 25 25
7 7 7 8 8 9 9 10 11 11 12 13 14 15 16 17 17 18 18 19 19 20 20 20 20 20 20 21 22 24 25 26 28 28 25 23 23 23 24 25 27 29 30 31 31 30 30 29 29 28 27 27
7 7 7 7 7 8 8 9 9 10 10 11 13 14 15 16 17 17 18 18 19 20 20 21 21 21 22 22 23 24 26 26 28 28 26 24 24 25 25 25 26 27 29 31 32 32 31 31 31 30 29 29
7 7 7 7 7 8 8 8 8 9 9 10 11 12 13 14 15 15 16 17 18 19 20 20 21 21 22 23 24 25 26 27 28 28 28 27 27 27 27 27 27 27 27 29 31 32 32 32 32 32 31 31
5 6 7 7 8 8 8 8 9 9 9 9 10 10 11 11 11 11 12 13 15 17 19 20 21 22 22 23 24 25 26 26 26 26 26 27 28 29 29 28 28 28 28 29 30 32 32 33 33 34 34 34
2 1 3 5 6 7 8 8 9 10 11 11 11 11 11 11 10 10 10 11 12 13 14 16 17 19 21 22 23 25 25 25 25 24 25 26 28 29 29 29 29 28 29 29 31 32 33 34 35 36 36 36
10 8 6 3 1 2 5 6 7 9 10 11 12 13 13 14 14 14 13 14 14 14 14 14 15 16 18 20 22 24 25 24 24 24 24 26 28 29 30 29 29 29 29 30 31 32 33 34 36 38 38 38
15 13 11 8 6 5 2 1 2 4 5 7 8 9 11 13 14 16 17 18 19 19 19 19 19 18 17 17 18 20 22 23 24 24 25 26 27 28 30 30 29 30 30 30 30 31 32 32 32 34 37 39
18 15 13 12 10 9 7 6 4 2 2 2 2 3 4 5 7 10 12 16 18 20 22 23 23 23 21 19 17 17 19 21 22 23 24 25 26 28 30 30 30 30 30 31 30 30 30 28 27 29 34 38
21 18 17 15 13 11 10 9 8 8 7 6 5 4 3 2 1 2 4 7 10 14 17 20 22 24 24 24 22 20 19 19 19 21 22 23 25 27 28 29 30 30 30 31 32 32 30 26 24 25 29 32
22 21 20 18 16 15 13 13 14 14 13 12 11 10 8 6 4 2 1 2 4 6 9 12 16 19 21 23 23 23 22 21 20 20 20 21 22 24 25 27 29 30 30 31 32 34 35 33 30 26 24 25
20 20 19 18 17 17 16 16 16 16 14 14 14 13 12 11 9 7 5 3 2 2 4 6 9 11 14 17 20 22 23 23 23 23 22 21 21 21 22 23 27 29 29 31 33 34 36 38 39 37 33 29
Wind_Direction
240 241 243 243 243 243 242 241 241 240 240 239 237 235 230 230 230 227 222 224 231 232 237 249 256 264 277 290 290 286 284 271 259 263 260 241 231 223 216 209 207 209 211 214 217 222 230 244 259 272 281 281
243 242 244 245 245 245 245 242 241 238 239 240 240 239 233 230 227 224 222 222 228 233 237 243 251 262 273 284 287 287 283 271 257 258 243 220 219 216 209 207 207 211 212 214 220 229 241 252 265 274 280 281
245 245 245 246 246 246 246 245 242 238 236 237 240 241 237 233 229 224 225 225 228 234 238 240 246 256 267 278 283 281 278 271 261 255 232 218 218 212 208 208 211 213 214 217 225 235 248 257 265 271 275 273
247 248 249 248 248 247 246 245 244 240 236 236 237 239 238 237 232 228 228 227 229 236 240 241 243 249 259 269 275 273 269 263 255 248 229 223 220 212 209 212 215 216 216 221 232 244 255 264 269 272 273 269
246 247 249 250 250 249 248 245 244 242 238 237 237 236 238 237 234 231 229 228 230 236 241 245 246 248 253 260 266 266 262 254 250 246 229 226 222 213 213 216 219 219 219 225 237 251 263 271 274 275 274 273
245 246 248 249 251 251 250 247 244 242 240 239 238 237 237 237 236 232 230 230 232 237 241 246 250 251 252 254 260 262 258 248 246 244 232 233 226 216 219 220 223 224 223 232 244 258 268 272 274 275 276 278
245 245 247 248 250 252 252 249 244 242 241 240 240 239 238 238 238 235 231 231 234 238 242 247 252 254 252 253 259 261 257 247 242 239 233 238 231 222 224 224 227 228 228 236 247 259 265 267 270 272 276 278
248 245 246 247 249 251 252 251 246 244 244 243 243 242 241 240 239 237 233 232 234 236 241 247 252 256 255 256 261 260 256 249 242 237 233 236 231 226 227 226 230 232 231 237 246 254 257 260 264 268 272 275
254 251 248 248 249 250 251 251 249 248 248 247 246 245 244 243 241 240 236 233 233 234 240 246 252 257 260 260 261 258 256 251 245 239 236 234 231 230 229 228 231 233 232 234 241 246 249 253 257 262 266 269
265 260 255 252 251 251 250 249 248 249 250 251 250 249 247 246 244 242 240 235 233 236 242 248 254 260 263 264 263 258 254 251 247 242 240 235 232 235 233 232 234 234 233 233 237 241 243 247 250 255 258 262
282 272 263 259 255 253 251 249 248 249 251 253 254 253 250 248 246 245 243 239 237 241 246 251 256 261 264 265 265 262 254 251 249 245 241 233 232 238 237 236 238 238 237 235 237 240 240 243 245 248 252 255
295 287 275 266 259 256 253 250 249 249 252 255 256 256 254 251 248 247 245 242 242 244 248 253 257 261 264 267 268 267 258 252 251 247 242 233 230 237 238 238 240 240 239 237 237 240 240 241 243 244 246 249
296 290 281 271 264 260 257 255 253 252 252 254 255 257 258 255 251 250 247 244 244 246 249 254 259 262 265 268 269 270 264 255 254 251 245 237 231 236 240 239 240 241 240 239 240 240 241 242 243 243 244 244
296 292 286 280 273 268 263 261 259 256 254 254 254 256 259 260 257 255 251 248 247 248 252 256 260 263 266 268 270 272 269 260 255 253 249 242 235 238 243 242 241 242 242 242 243 243 243 243 243 244 244 244
295 296 293 289 283 276 271 267 264 261 260 260 259 258 258 260 263 261 256 251 250 252 255 258 261 265 268 270 272 273 273 266 258 253 249 246 239 240 246 247 244 242 242 243 245 246 245 245 246 246 246 246
297 300 298 294 287 282 279 274 269 267 265 265 265 265 262 262 265 266 262 256 254 256 258 261 263 267 270 273 275 276 275 272 265 257 249 245 240 238 242 246 246 243 243 244 245 246 247 247 249 249 249 249
297 299 297 294 289 285 281 276 273 271 270 269 268 268 267 268 268 268 267 264 261 261 262 265 267 271 275 276 277 277 277 276 273 266 254 246 241 237 239 243 246 244 244 245 245 246 247 248 250 251 252 252
271 282 287 288 286 283 279 276 275 274 274 273 271 270 271 272 271 269 269 269 268 266 265 268 271 275 278 279 279 278 278 279 279 276 265 253 244 240 240 243 246 246 246 246 247 247 248 249 250 251 253 254
238 254 266 271 274 274 275 273 273 274 274 274 273 272 272 273 274 273 272 273 273 271 271 272 274 276 278 280 279 279 281 282 283 284 276 262 251 247 244 244 245 247 247 247 248 250 250 250 250 251 253 254
236 242 252 259 263 262 263 264 265 268 269 271 273 274 275 276 276 275 275 276 276 276 276 276 277 278 278 278 279 279 281 282 285 288 283 270 261 257 253 249 247 247 248 248 249 250 250 250 250 251 252 253
237 238 247 252 256 255 254 255 255 257 259 262 265 267 270 272 274 275 275 276 277 278 277 278 279 279 278 278 278 279 279 281 284 288 284 276 272 269 265 259 254 250 249 249 249 249 250 250 249 250 250 251
238 234 238 240 245 247 247 247 247 248 250 253 256 258 261 263 267 269 271 274 277 279 279 278 278 278 278 278 279 279 279 280 282 284 284 281 280 279 275 270 265 260 255 252 249 249 250 250 249 249 249 250
238 234 236 234 235 237 236 236 236 238 241 245 250 252 256 259 261 262 265 268 270 272 275 276 276 277 277 277 277 276 276 278 280 283 284 285 285 284 281 277 273 269 264 258 252 250 249 250 250 249 249 249
239 234 233 234 234 234 234 230 228 228 229 234 239 243 247 250 253 253 255 258 261 264 266 269 270 270 270 273 275 275 275 278 281 283 285 286 286 284 282 279 277 273 269 264 257 253 251 250 250 250 249 249
59 187 210 223 227 229 232 232 232 230 228 229 232 235 236 237 239 240 242 245 250 256 261 265 267 267 267 270 273 276 278 279 280 281 282 283 282 280 278 278 278 276 272 265 259 256 255 253 251 250 249 249
63 66 68 67 170 214 228 232 234 236 236 237 239 241 242 242 242 243 244 244 244 248 251 255 261 265 269 271 273 274 275 277 277 278 279 278 277 277 276 276 276 274 270 265 262 261 259 257 255 252 251 252
69 65 60 54 51 50 52 164 196 217 223 231 237 243 249 251 252 252 251 251 250 251 251 252 252 255 259 265 270 272 272 272 273 274 275 275 276 276 275 273 272 271 270 267 264 261 257 257 259 258 256 255
71 69 66 62 58 54 55 62 66 90 140 167 189 209 234 250 256 258 257 257 256 256 255 255 254 253 253 255 260 266 270 271 270 270 270 272 273 273 272 271 271 271 271 268 263 257 253 253 257 259 259 260
72 72 70 69 68 66 67 73 76 77 78 80 80 82 88 104 195 240 251 257 259 259 259 259 257 256 254 253 252 255 261 266 269 269 269 270 271 271 272 274 274 273 271 269 267 260 253 250 252 257 263 267
74 73 74 74 75 74 72 72 70 65 61 59 62 65 66 65 66 77 152 226 244 252 255 257 259 260 258 255 253 252 253 257 261 265 268 271 272 272 274 276 276 274 272 272 270 265 259 255 254 259 267 273
74 74 74 73 72 70 67 64 60 56 51 49 51 55 59 58 51 47 43 31 350 281 260 254 255 257 260 260 257 255 253 253 255 258 262 265 269 272 273 275 275 275 275 273 270 268 266 262 259 258 261 267